Location: Seattle
(47.6064°N, 122.3308°W)
Time: 23:03:08
(UTC-07:00)

ISS - Pass Details

Date: 17 December 2015
Orbit: 411 x 421 km, 51.6° (Epoch: 16 October)

Event Time Altitude Azimuth Distance (km) Brightness Sun altitude
Rises 15:09:13 0° 291° (WNW) 2,353 0.3 7.9°
Reaches altitude 10° 15:11:20 10° 296° (WNW) 1,491 -0.7 7.7°
Maximum altitude 15:14:38 55° 16° (NNE) 509 -3.5 7.3°
Drops below altitude 10° 15:17:56 10° 95° (E) 1,498 -1.3 6.9°
Sets 15:20:04 0° 100° (E) 2,364 -0.3 6.7°
